Satellite: FENGYUN 1D
Catalog number: 27431
Epoch time:      103063.93721273
Element set:     234 
Inclination:       98.7654 deg
RA of node:       112.5310 deg
Eccentricity:    0.0016257
Arg of perigee:    84.3420 deg
Mean anomaly:     275.9603 deg
Mean motion:   14.09180178 rev/day
Decay rate:    9.9999E-009 rev/day^2
Epoch rev:            4139
Checksum:              317

Satellite: NOAA 17
Catalog number: 27453
Epoch time:      103063.97691036
Element set:     326 
Inclination:       98.7542 deg
RA of node:       135.1113 deg
Eccentricity:    0.0011201
Arg of perigee:   318.9228 deg
Mean anomaly:      41.1106 deg
Mean motion:   14.23300764 rev/day
Decay rate:    1.9300E-006 rev/day^2
Epoch rev:            3601
Checksum:              261

Satellite: HOT BIRD 6
Catalog number: 27499
Epoch time:      103054.87288413
Element set:     70 
Inclination:        0.0150 deg
RA of node:       173.7812 deg
Eccentricity:    0.0009015
Arg of perigee:   197.5701 deg
Mean anomaly:     109.1063 deg
Mean motion:    1.00270140 rev/day
Decay rate:    7.5000E-007 rev/day^2
Epoch rev:             188
Checksum:              258

Satellite: RUBIN 2
Catalog number: 27605
Epoch time:      103064.32885899
Element set:     74 
Inclination:       64.5527 deg
RA of node:       152.4181 deg
Eccentricity:    0.0035637
Arg of perigee:   107.4673 deg
Mean anomaly:     253.0331 deg
Mean motion:   14.71392286 rev/day
Decay rate:    5.8099E-006 rev/day^2
Epoch rev:            1098
Checksum:              324


Read previous mail | Read next mail


 24.06.2026 18:48:39lGo back Go up